Location: Freistadt
(48.5112°N, 14.5013°E)
Time: 00:08:14
(UTC+02:00)

M-CUBED/EXP-1 PRIME - Pass Details

Date: 10 April 2023
Orbit: 406 x 574 km, 101.7° (Epoch: 28 May)

Event Time Altitude Azimuth Distance (km) Brightness Sun altitude
Rises 03:01:58 0° 11° (N) 2,782 ? -28.0°
Reaches altitude 10° 03:04:21 10° 360° (N) 1,857 ? -27.8°
Enters shadow 03:06:26 23° 335° (NNW) 1,203 ? -27.6°
